Home   Weather   Calgary   Past weeks

Flag for Canada Past Weather in Calgary, Alberta, Canada — Yesterday and Last 2 Weeks

Now
9 °F

Mostly cloudy.


Feels Like: 9 °F
Forecast: 8 / 23 °F
Wind: No wind

Location: Calgary International

Current Time: Feb 28, 2017 at 7:39:29 am

Latest Report: Feb 28, 2017 at 7:00 am


Visibility: 10 mi

Pressure: 29.86 "Hg (25.97 "Hg at 1063m altitude)

Humidity: 66%

Dew Point: 0 °F

Location of CalgaryLocation

Past Weather in Calgary — Graph

°F

Calgary Temperature Yesterday

Maximum temperature yesterday: 16 °F (at 2:00 pm)
Minimum temperature yesterday: 1 °F (at 5:00 am)
Average temperature yesterday: 9 °F

High & Low Weather Summary for the Past Weeks

 TemperatureHumidityPressure
High61 °F (Feb 15, 2:00 pm)100% (Feb 18, 10:00 pm)30.30 "Hg (Feb 18, 10:00 pm)
Low1 °F (Feb 27, 5:00 am)25% (Feb 17, 1:00 pm)29.16 "Hg (Feb 16, 2:00 pm)
Average27 °F75%29.86 "Hg
* Reported Feb 13 6:00 am — Feb 28 6:00 am, Calgary, Weather by CustomWeather, © 2017

Note: Actual official high and low records may vary slightly from our data, if they occured in-between our weather recording intervals... More about our weather records

Advertising

Calgary Weather History for the Previous 24 Hours

Scroll right to see more
 ConditionsComfort  
Time TempWeatherWind HumidityBarometerVisibility
6:00 am
Tue, Feb 28
9 °FPartly cloudy.3 mph66%29.84 "Hg15 mi
5:00 am9 °FPartly cloudy.2 mph72%29.82 "Hg15 mi
4:00 am7 °FMostly cloudy.5 mph78%29.81 "Hg15 mi
3:00 am9 °FPartly cloudy.3 mph72%29.81 "Hg15 mi
2:00 am10 °FMostly cloudy.6 mph67%29.81 "Hg15 mi
1:00 am12 °FPassing clouds.5 mph67%29.81 "Hg15 mi
12:00 am12 °FPartly cloudy.2 mph73%29.81 "Hg15 mi
11:00 pm
Mon, Feb 27
14 °FPassing clouds.2 mph62%29.82 "Hg10 mi
10:00 pm12 °FPassing clouds.2 mph73%29.83 "Hg15 mi
9:00 pm14 °FOvercast.2 mph73%29.83 "Hg15 mi
8:00 pm14 °FPartly cloudy.3 mph73%29.82 "Hg10 mi
7:00 pm14 °FMostly cloudy.3 mph67%29.81 "Hg15 mi
6:00 pm14 °FMostly cloudy.5 mph62%29.79 "Hg15 mi
5:00 pm16 °FMostly cloudy.5 mph62%29.77 "Hg20 mi
4:00 pm16 °FCloudy.5 mph53%29.76 "Hg20 mi
3:00 pm16 °FPartly sunny.5 mph57%29.75 "Hg40 mi
2:00 pm16 °FScattered clouds.5 mph53%29.74 "Hg40 mi
1:00 pm14 °FScattered clouds.7 mph57%29.75 "Hg40 mi
12:00 pm12 °FScattered clouds.8 mph57%29.76 "Hg40 mi
11:00 am10 °FScattered clouds.7 mph61%29.76 "Hg40 mi
10:00 am7 °FScattered clouds.2 mph72%29.77 "Hg40 mi
9:00 am3 °FBroken clouds.5 mph85%29.78 "Hg40 mi
8:00 am3 °FBroken clouds.7 mph85%29.78 "Hg40 mi
7:00 am3 °FPassing clouds.8 mph78%29.79 "Hg15 mi
Weather by CustomWeather, © 2017

See weather overviewHow to use our weather pages